OK,223,47,610,223,2014-10-01T01:40:00,0,28071937,210013
OK,223,47,610,223,2014-10-01T01:45:00,0,28072380,210013
OK,223,47,610,223,2014-10-01T01:50:00,0,28072829,210013
OK,223,47,610,223,2014-10-01T01:55:00,0,28073276,210013
OK,223,47,610,223,2014-10-01T02:00:00,0,28073724,210013
OK,223,47,610,223,2014-10-01T02:05:00,0,28074042,210013
OK,223,47,610,223,2014-10-01T02:10:00,0,28074491,210013
OK,223,47,610,223,2014-10-01T02:15:00,0,28074931,210013
OK,223,47,610,223,2014-10-01T02:20:00,0,28075380,210013
OK,223,47,610,223,2014-10-01T02:25:00,0,28075829,210013
OK,223,47,610,223,2014-10-01T02:30:00,0,28076212,210013
OK,223,47,610,223,2014-10-01T02:35:00,0,28076661,210013
OK,223,47,610,223,2014-10-01T02:40:00,0,28077110,210013
OK,223,47,610,223,2014-10-01T02:45:00,0,28077559,210013
OK,223,47,610,223,2014-10-01T02:50:00,0,28077962,210013
OK,223,47,610,223,2014-10-01T02:55:00,0,28078411,210013
OK,223,47,610,223,2014-10-01T03:00:00,0,28078856,210013
OK,223,47,610,223,2014-10-01T03:05:00,0,28079304,210013
OK,223,47,610,223,2014-10-01T03:10:00,0,28079747,210013
OK,223,47,610,223,2014-10-01T03:15:00,0,28080196,210013
OK,223,47,610,223,2014-10-01T03:20:00,0,28080530,210013
OK,223,47,610,223,2014-10-01T03:25:00,0,28080979,210013
OK,223,47,610,223,2014-10-01T03:30:00,0,28081428,210013
OK,223,47,610,223,2014-10-01T03:35:00,0,28081875,210013
OK,223,47,610,223,2014-10-01T03:40:00,0,28082324,210013
OK,223,47,610,223,2014-10-01T03:45:00,0,28082757,210013
OK,223,47,610,223,2014-10-01T03:50:00,0,28083189,210013
OK,233,45,610,233,2014-10-01T03:55:00,2,28083638,210013
OK,174,60,610,174,2014-10-01T04:00:00,1,28084087,210013
OK,174,60,610,174,2014-10-01T04:05:00,0,28084528,210013
OK,160,66,610,160,2014-10-01T04:10:00,1,28084953,210013
OK,160,66,610,160,2014-10-01T04:15:00,1,28085402,210013
OK,160,66,610,160,2014-10-01T04:20:00,0,28085847,210013
OK,160,66,610,160,2014-10-01T04:25:00,0,28086296,210013
OK,160,66,610,160,2014-10-01T04:30:00,0,28086738,210013
OK,179,59,610,179,2014-10-01T04:35:00,1,28087187,210013
OK,191,55,610,191,2014-10-01T04:40:00,2,28087632,210013
OK,203,52,610,203,2014-10-01T04:45:00,1,28088081,210013
OK,203,52,610,203,2014-10-01T04:50:00,0,28088505,210013
OK,203,52,610,203,2014-10-01T04:55:00,0,28088954,210013
OK,274,38,610,274,2014-10-01T05:00:00,1,28089384,210013
OK,274,38,610,274,2014-10-01T05:05:00,1,28089833,210013
OK,274,38,610,274,2014-10-01T05:10:00,0,28090282,210013
OK,274,38,610,274,2014-10-01T05:15:00,0,28090626,210013
OK,222,47,610,222,2014-10-01T05:20:00,2,28091075,210013
OK,222,47,610,222,2014-10-01T05:25:00,2,28091524,210013
OK,192,55,610,192,2014-10-01T05:30:00,2,28091941,210013
OK,218,48,610,218,2014-10-01T05:35:00,4,28092390,210013
OK,275,38,610,275,2014-10-01T05:40:00,2,28092834,210013
OK,219,48,610,219,2014-10-01T05:45:00,1,28093275,210013
OK,219,48,610,219,2014-10-01T05:50:00,1,28093706,210013
OK,219,48,610,219,2014-10-01T05:55:00,0,28094155,210013
OK,219,48,610,219,2014-10-01T06:00:00,0,28094566,210013
OK,219,48,610,219,2014-10-01T06:05:00,0,28095011,210013
OK,219,48,610,219,2014-10-01T06:10:00,0,28095458,210013
OK,378,27,610,378,2014-10-01T06:15:00,2,28095907,210013
OK,332,31,610,332,2014-10-01T06:20:00,4,28096320,210013
OK,348,30,610,348,2014-10-01T06:25:00,5,28096769,210013
OK,351,30,610,351,2014-10-01T06:30:00,3,28097203,210013
OK,276,38,610,276,2014-10-01T06:35:00,1,28097652,210013
OK,276,38,610,276,2014-10-01T06:40:00,1,28098101,210013
OK,276,38,610,276,2014-10-01T06:45:00,0,28098538,210013
OK,237,44,610,237,2014-10-01T06:50:00,1,28098982,210013
OK,237,44,610,237,2014-10-01T06:55:00,1,28099430,210013
OK,250,42,610,250,2014-10-01T07:00:00,1,28099773,210013
OK,250,42,610,250,2014-10-01T07:05:00,0,28100222,210013
OK,217,48,610,217,2014-10-01T07:10:00,1,28100529,210013
OK,194,54,610,194,2014-10-01T07:15:00,1,28100978,210013
OK,194,54,610,194,2014-10-01T07:20:00,0,28101349,210013
OK,208,50,610,208,2014-10-01T07:25:00,3,28101798,210013
OK,208,50,610,208,2014-10-01T07:30:00,3,28102234,210013
OK,205,51,610,205,2014-10-01T07:35:00,0,28102683,210013
OK,263,40,610,263,2014-10-01T07:40:00,1,28103111,210013
OK,263,40,610,263,2014-10-01T07:45:00,1,28103557,210013
OK,263,40,610,263,2014-10-01T07:50:00,0,28104002,210013
OK,263,40,610,263,2014-10-01T07:55:00,0,28104447,210013
OK,263,40,610,263,2014-10-01T08:00:00,0,28104888,210013
OK,263,40,610,263,2014-10-01T08:05:00,0,28105333,210013
OK,263,40,610,263,2014-10-01T08:10:00,0,28105773,210013
OK,263,40,610,263,2014-10-01T08:15:00,0,28106222,210013
OK,263,40,610,263,2014-10-01T08:20:00,0,28106659,210013
OK,263,40,610,263,2014-10-01T08:25:00,0,28107065,210013
OK,250,42,610,250,2014-10-01T08:30:00,1,28107497,210013
OK,250,42,610,250,2014-10-01T08:35:00,1,28107946,210013
OK,250,42,610,250,2014-10-01T08:40:00,0,28108385,210013
OK,250,42,610,250,2014-10-01T08:45:00,0,28108834,210013
OK,250,42,610,250,2014-10-01T08:50:00,0,28109262,210013
OK,250,42,610,250,2014-10-01T08:55:00,0,28109711,210013
OK,250,42,610,250,2014-10-01T09:00:00,0,28110054,210013
OK,250,42,610,250,2014-10-01T09:05:00,0,28110503,210013
OK,250,42,610,250,2014-10-01T09:10:00,0,28110926,210013
OK,250,42,610,250,2014-10-01T09:15:00,0,28111375,210013
OK,250,42,610,250,2014-10-01T09:20:00,0,28111804,210013
OK,250,42,610,250,2014-10-01T09:25:00,0,28112253,210013
OK,250,42,610,250,2014-10-01T09:30:00,0,28112594,210013
OK,216,48,610,216,2014-10-01T09:35:00,1,28113043,210013
OK,216,48,610,216,2014-10-01T09:40:00,0,28113467,210013
OK,216,48,610,216,2014-10-01T09:45:00,0,28113916,210013
OK,216,48,610,216,2014-10-01T09:50:00,0,28114348,210013
OK,216,48,610,216,2014-10-01T09:55:00,0,28114797,210013
OK,216,48,610,216,2014-10-01T10:00:00,0,28115151,210013
OK,216,48,610,216,2014-10-01T10:05:00,0,28115600,210013
OK,216,48,610,216,2014-10-01T10:10:00,0,28116012,210013
OK,216,48,610,216,2014-10-01T10:15:00,0,28116461,210013
OK,169,62,610,169,2014-10-01T10:20:00,1,28116869,210013
OK,169,62,610,169,2014-10-01T10:25:00,1,28117318,210013
OK,169,62,610,169,2014-10-01T10:30:00,0,28117743,210013
OK,397,26,610,397,2014-10-01T10:35:00,1,28118192,210013
OK,229,46,610,229,2014-10-01T10:40:00,4,28118637,210013
OK,229,46,610,229,2014-10-01T10:45:00,4,28119084,210013
OK,249,42,610,249,2014-10-01T10:50:00,1,28119528,210013
OK,182,58,610,182,2014-10-01T10:55:00,1,28119976,210013
OK,182,58,610,182,2014-10-01T11:00:00,1,28120424,210013
OK,182,58,610,182,2014-10-01T11:05:00,0,28120873,210013
OK,195,54,610,195,2014-10-01T11:10:00,1,28121256,210013
OK,194,54,610,194,2014-10-01T11:15:00,4,28121705,210013
OK,193,54,610,193,2014-10-01T11:20:00,3,28122143,210013
OK,189,55,610,189,2014-10-01T11:25:00,0,28122592,210013
OK,189,55,610,189,2014-10-01T11:30:00,0,28123033,210013
OK,249,42,610,249,2014-10-01T11:35:00,1,28123482,210013
OK,249,42,610,249,2014-10-01T11:40:00,0,28123914,210013
OK,216,48,610,216,2014-10-01T11:45:00,2,28124363,210013
OK,220,48,610,220,2014-10-01T11:50:00,1,28124765,210013
OK,220,48,610,220,2014-10-01T11:55:00,0,28125214,210013
OK,220,48,610,220,2014-10-01T12:00:00,0,28125643,210013
OK,220,48,610,220,2014-10-01T12:05:00,0,28126092,210013
OK,220,48,610,220,2014-10-01T12:10:00,0,28126444,210013
OK,220,48,610,220,2014-10-01T12:15:00,1,28126893,210013
OK,220,48,610,220,2014-10-01T12:20:00,0,28127342,210013
OK,220,48,610,220,2014-10-01T12:25:00,0,28127791,210013
OK,220,48,610,220,2014-10-01T12:30:00,0,28128219,210013
OK,217,48,610,217,2014-10-01T12:35:00,3,28128668,210013
OK,233,45,610,233,2014-10-01T12:40:00,2,28129103,210013
OK,269,39,610,269,2014-10-01T12:45:00,0,28129552,210013
OK,269,39,610,269,2014-10-01T12:50:00,0,28129986,210013
OK,269,39,610,269,2014-10-01T12:55:00,0,28130435,210013
OK,212,49,610,212,2014-10-01T13:00:00,1,28130863,210013
OK,212,49,610,212,2014-10-01T13:05:00,0,28131312,210013
OK,265,39,610,265,2014-10-01T13:10:00,2,28131749,210013
OK,319,33,610,319,2014-10-01T13:15:00,1,28132198,210013
OK,319,33,610,319,2014-10-01T13:20:00,0,28132636,210013
OK,319,33,610,319,2014-10-01T13:25:00,0,28133083,210013
OK,319,33,610,319,2014-10-01T13:30:00,0,28133521,210013
OK,241,43,610,241,2014-10-01T13:35:00,4,28133970,210013
OK,224,47,610,224,2014-10-01T13:40:00,1,28134409,210013
OK,236,44,610,236,2014-10-01T13:45:00,1,28134858,210013
OK,236,44,610,236,2014-10-01T13:50:00,1,28135277,210013
OK,196,53,610,196,2014-10-01T13:55:00,2,28135726,210013
OK,204,51,610,204,2014-10-01T14:00:00,4,28136163,210013
OK,204,51,610,204,2014-10-01T14:05:00,2,28136612,210013
OK,240,44,610,240,2014-10-01T14:10:00,1,28137052,210013
OK,234,45,610,234,2014-10-01T14:15:00,2,28137501,210013
OK,229,46,610,229,2014-10-01T14:20:00,2,28137935,210013
OK,231,45,610,231,2014-10-01T14:25:00,1,28138384,210013
OK,217,48,610,217,2014-10-01T14:30:00,1,28138812,210013
OK,217,48,610,217,2014-10-01T14:35:00,1,28139261,210013
OK,217,48,610,217,2014-10-01T14:40:00,0,28139672,210013
OK,217,48,610,217,2014-10-01T14:45:00,0,28140121,210013
OK,252,41,610,252,2014-10-01T14:50:00,1,28140563,210013
OK,252,41,610,252,2014-10-01T14:55:00,1,28141012,210013
OK,252,41,610,252,2014-10-01T15:00:00,0,28141438,210013
OK,252,41,610,252,2014-10-01T15:05:00,0,28141887,210013
OK,278,38,610,278,2014-10-01T15:10:00,1,28142315,210013
OK,245,43,610,245,2014-10-01T15:15:00,2,28142764,210013
OK,259,40,610,259,2014-10-01T15:20:00,2,28143191,210013
OK,307,34,610,307,2014-10-01T15:25:00,0,28143640,210013
OK,307,34,610,307,2014-10-01T15:30:00,0,28144088,210013
OK,251,42,610,251,2014-10-01T15:35:00,1,28144537,210013
OK,251,42,610,251,2014-10-01T15:40:00,1,28144958,210013
OK,251,42,610,251,2014-10-01T15:45:00,0,28145372,210013
OK,194,54,610,194,2014-10-01T15:50:00,1,28145821,210013
OK,188,56,610,188,2014-10-01T15:55:00,2,28146270,210013
OK,228,46,610,228,2014-10-01T16:00:00,1,28146719,210013
OK,211,50,610,211,2014-10-01T16:05:00,1,28147127,210013
OK,202,52,610,202,2014-10-01T16:10:00,1,28147571,210013
OK,202,52,610,202,2014-10-01T16:15:00,1,28148020,210013
OK,202,52,610,202,2014-10-01T16:20:00,0,28148421,210013
OK,202,52,610,202,2014-10-01T16:25:00,0,28148870,210013
OK,202,52,610,202,2014-10-01T16:30:00,0,28149309,210013
OK,202,52,610,202,2014-10-01T16:35:00,0,28149758,210013
OK,202,52,610,202,2014-10-01T16:40:00,0,28150184,210013
OK,202,52,610,202,2014-10-01T16:45:00,0,28150633,210013
OK,202,52,610,202,2014-10-01T16:50:00,0,28151051,210013
OK,202,52,610,202,2014-10-01T16:55:00,0,28151500,210013
OK,202,52,610,202,2014-10-01T17:05:00,0,28151949,210013
OK,202,52,610,202,2014-10-01T17:10:00,0,28152398,210013
OK,202,52,610,202,2014-10-01T17:15:00,0,28152844,210013
OK,202,52,610,202,2014-10-01T17:20:00,0,28153291,210013
OK,202,52,610,202,2014-10-01T17:25:00,0,28153740,210013
OK,277,38,610,277,2014-10-01T17:30:00,1,28154150,210013
OK,277,38,610,277,2014-10-01T17:35:00,1,28154599,210013
OK,277,38,610,277,2014-10-01T17:40:00,0,28155041,210013
OK,277,38,610,277,2014-10-01T17:45:00,0,28155489,210013
OK,277,38,610,277,2014-10-01T17:50:00,0,28155907,210013
OK,277,38,610,277,2014-10-01T17:55:00,0,28156356,210013
OK,277,38,610,277,2014-10-01T18:00:00,0,28156804,210013
OK,277,38,610,277,2014-10-01T18:05:00,0,28157243,210013
OK,277,38,610,277,2014-10-01T18:10:00,0,28157673,210013
OK,277,38,610,277,2014-10-01T18:15:00,0,28158121,210013
OK,277,38,610,277,2014-10-01T18:20:00,0,28158565,210013
OK,277,38,610,277,2014-10-01T18:25:00,0,28159011,210013
OK,277,38,610,277,2014-10-01T18:30:00,0,28159457,210013
OK,277,38,610,277,2014-10-01T18:35:00,0,28159792,210013
OK,277,38,610,277,2014-10-01T18:40:00,0,28160241,210013
OK,277,38,610,277,2014-10-01T18:45:00,0,28160690,210013
OK,277,38,610,277,2014-10-01T18:50:00,0,28161128,210013
OK,277,38,610,277,2014-10-01T18:55:00,0,28161577,210013
OK,229,46,610,229,2014-10-01T19:00:00,1,28161994,210013
OK,229,46,610,229,2014-10-01T19:05:00,1,28162443,210013
OK,229,46,610,229,2014-10-01T19:10:00,0,28162837,210013
OK,229,46,610,229,2014-10-01T19:15:00,0,28163276,210013
OK,229,46,610,229,2014-10-01T19:20:00,0,28163724,210013
OK,229,46,610,229,2014-10-01T19:25:00,0,28164173,210013
OK,229,46,610,229,2014-10-01T19:30:00,0,28164604,210013
OK,229,46,610,229,2014-10-01T19:35:00,0,28165053,210013
OK,229,46,610,229,2014-10-01T19:40:00,0,28165478,210013
OK,229,46,610,229,2014-10-01T19:45:00,0,28165926,210013
OK,229,46,610,229,2014-10-01T19:50:00,0,28166367,210013
OK,229,46,610,229,2014-10-01T19:55:00,0,28166729,210013
OK,194,54,610,194,2014-10-01T20:00:00,2,28167178,210013
OK,193,54,610,193,2014-10-01T20:05:00,2,28167607,210013
OK,137,77,610,137,2014-10-01T20:10:00,1,28168040,210013
OK,137,77,610,137,2014-10-01T20:15:00,0,28168489,210013
OK,137,77,610,137,2014-10-01T20:20:00,0,28168934,210013
OK,137,77,610,137,2014-10-01T20:25:00,0,28169383,210013
OK,137,77,610,137,2014-10-01T20:30:00,0,28169831,210013
OK,137,77,610,137,2014-10-01T20:35:00,0,28170257,210013
OK,137,77,610,137,2014-10-01T20:40:00,0,28170702,210013
OK,137,77,610,137,2014-10-01T20:45:00,0,28171150,210013
OK,137,77,610,137,2014-10-01T20:50:00,0,28171587,210013
OK,137,77,610,137,2014-10-01T20:55:00,0,28172033,210013
OK,382,27,610,382,2014-10-01T21:00:00,1,28172481,210013
OK,382,27,610,382,2014-10-01T21:05:00,0,28172927,210013
OK,382,27,610,382,2014-10-01T21:10:00,0,28173373,210013
OK,382,27,610,382,2014-10-01T21:15:00,0,28173822,210013
OK,382,27,610,382,2014-10-01T21:20:00,0,28174263,210013
OK,382,27,610,382,2014-10-01T21:25:00,0,28174712,210013
OK,382,27,610,382,2014-10-01T21:30:00,0,28175138,210013
OK,382,27,610,382,2014-10-01T21:35:00,0,28175534,210013
OK,382,27,610,382,2014-10-01T21:40:00,0,28175983,210013
OK,382,27,610,382,2014-10-01T21:45:00,0,28176432,210013
OK,382,27,610,382,2014-10-01T21:50:00,0,28176881,210013
OK,382,27,610,382,2014-10-01T21:55:00,0,28177237,210013
OK,382,27,610,382,2014-10-01T22:00:00,0,28177677,210013
OK,382,27,610,382,2014-10-01T22:05:00,0,28178123,210013
OK,382,27,610,382,2014-10-01T22:10:00,0,28178572,210013
OK,382,27,610,382,2014-10-01T22:15:00,0,28179019,210013
OK,382,27,610,382,2014-10-01T22:20:00,0,28179453,210013
OK,382,27,610,382,2014-10-01T22:25:00,0,28179896,210013
OK,382,27,610,382,2014-10-01T22:30:00,0,28180343,210013
OK,382,27,610,382,2014-10-01T22:35:00,0,28180741,210013
OK,382,27,610,382,2014-10-01T22:40:00,0,28181190,210013
OK,382,27,610,382,2014-10-01T22:45:00,0,28181614,210013
OK,382,27,610,382,2014-10-01T22:50:00,0,28182062,210013
OK,382,27,610,382,2014-10-01T22:55:00,0,28182509,210013
OK,382,27,610,382,2014-10-01T23:00:00,0,28182958,210013
OK,382,27,610,382,2014-10-01T23:05:00,0,28183375,210013
OK,382,27,610,382,2014-10-01T23:10:00,0,28183808,210013
OK,382,27,610,382,2014-10-01T23:15:00,0,28184253,210013
OK,382,27,610,382,2014-10-01T23:20:00,0,28184702,210013
OK,382,27,610,382,2014-10-01T23:25:00,0,28185137,210013
OK,382,27,610,382,2014-10-01T23:30:00,0,28185585,210013
OK,382,27,610,382,2014-10-01T23:35:00,0,28186016,210013
OK,382,27,610,382,2014-10-01T23:40:00,0,28186408,210013
OK,382,27,610,382,2014-10-01T23:45:00,0,28186857,210013
OK,382,27,610,382,2014-10-01T23:50:00,0,28187255,210013
OK,382,27,610,382,2014-10-01T23:55:00,0,28187697,210013
OK,382,27,610,382,2014-10-02T00:00:00,0,28188146,210013
OK,382,27,610,382,2014-10-02T00:05:00,0,28188587,210013
OK,382,27,610,382,2014-10-02T00:10:00,0,28189023,210013
OK,382,27,610,382,2014-10-02T00:15:00,0,28189472,210013
OK,382,27,610,382,2014-10-02T00:20:00,0,28189894,210013
OK,382,27,610,382,2014-10-02T00:25:00,0,28190343,210013
OK,382,27,610,382,2014-10-02T00:30:00,0,28190696,210013
OK,382,27,610,382,2014-10-02T00:35:00,0,28191145,210013
OK,382,27,610,382,2014-10-02T00:40:00,0,28191594,210013
OK,382,27,610,382,2014-10-02T00:45:00,0,28191900,210013
OK,382,27,610,382,2014-10-02T00:50:00,0,28192349,210013
OK,382,27,610,382,2014-10-02T00:55:00,0,28192782,210013
OK,382,27,610,382,2014-10-02T01:05:00,0,28193593,210013
OK,382,27,610,382,2014-10-02T01:10:00,0,28194042,210013
OK,382,27,610,382,2014-10-02T01:15:00,0,28194491,210013
OK,382,27,610,382,2014-10-02T01:20:00,0,28194940,210013
OK,382,27,610,382,2014-10-02T01:25:00,0,28195176,210013
OK,382,27,610,382,2014-10-02T01:30:00,0,28195625,210013
OK,382,27,610,382,2014-10-02T01:35:00,0,28196074,210013
OK,382,27,610,382,2014-10-02T01:40:00,0,28196358,210013
OK,382,27,610,382,2014-10-02T01:45:00,0,28196807,210013
OK,382,27,610,382,2014-10-02T01:50:00,0,28197230,210013
OK,382,27,610,382,2014-10-02T01:55:00,0,28197679,210013
OK,382,27,610,382,2014-10-02T02:00:00,0,28198127,210013
OK,382,27,610,382,2014-10-02T02:05:00,0,28198575,210013
OK,382,27,610,382,2014-10-02T02:10:00,0,28199024,210013
OK,382,27,610,382,2014-10-02T02:15:00,0,28199396,210013
OK,382,27,610,382,2014-10-02T02:20:00,0,28199838,210013
OK,382,27,610,382,2014-10-02T02:25:00,0,28200280,210013
OK,382,27,610,382,2014-10-02T02:30:00,0,28200723,210013
OK,382,27,610,382,2014-10-02T02:35:00,0,28201172,210013
OK,382,27,610,382,2014-10-02T02:45:00,0,28201603,210013
OK,382,27,610,382,2014-10-02T02:50:00,0,28202052,210013
OK,382,27,610,382,2014-10-02T02:55:00,0,28202501,210013
OK,382,27,610,382,2014-10-02T03:00:00,0,28202943,210013
OK,382,27,610,382,2014-10-02T03:05:00,0,28203391,210013
OK,382,27,610,382,2014-10-02T03:10:00,0,28203826,210013
OK,382,27,610,382,2014-10-02T03:30:00,0,28204275,210013
OK,382,27,610,382,2014-10-02T03:35:00,0,28204724,210013
OK,382,27,610,382,2014-10-02T03:40:00,0,28205173,210013
OK,279,37,610,279,2014-10-02T03:45:00,1,28205601,210013
OK,279,37,610,279,2014-10-02T03:50:00,0,28206048,210013
OK,279,37,610,279,2014-10-02T03:55:00,0,28206431,210013
OK,189,55,610,189,2014-10-02T04:00:00,1,28206880,210013
OK,189,55,610,189,2014-10-02T04:05:00,0,28207329,210013
OK,189,55,610,189,2014-10-02T04:10:00,0,28207748,210013
OK,189,55,610,189,2014-10-02T04:15:00,0,28208197,210013
OK,189,55,610,189,2014-10-02T04:20:00,0,28208624,210013
OK,189,55,610,189,2014-10-02T04:25:00,0,28209073,210013
OK,189,55,610,189,2014-10-02T04:30:00,0,28209511,210013
OK,189,55,610,189,2014-10-02T04:35:00,0,28209960,210013
OK,204,51,610,204,2014-10-02T04:40:00,1,28210383,210013
OK,204,51,610,204,2014-10-02T04:45:00,0,28210832,210013
OK,204,51,610,204,2014-10-02T04:50:00,0,28211257,210013
OK,211,50,610,211,2014-10-02T04:55:00,1,28211701,210013
OK,211,50,610,211,2014-10-02T05:00:00,0,28212079,210013
OK,211,50,610,211,2014-10-02T05:05:00,0,28212528,210013
OK,211,50,610,211,2014-10-02T05:10:00,0,28212957,210013
OK,211,50,610,211,2014-10-02T05:15:00,0,28213406,210013
OK,211,50,610,211,2014-10-02T05:20:00,0,28213844,210013
OK,246,42,610,246,2014-10-02T05:25:00,3,28214293,210013
OK,177,59,610,177,2014-10-02T05:30:00,0,28214706,210013
OK,177,59,610,177,2014-10-02T05:35:00,0,28215155,210013
OK,235,44,610,235,2014-10-02T05:40:00,1,28215571,210013
OK,235,44,610,235,2014-10-02T05:45:00,0,28216020,210013
OK,235,44,610,235,2014-10-02T05:50:00,0,28216359,210013
OK,319,33,610,319,2014-10-02T05:55:00,1,28216799,210013
OK,324,32,610,324,2014-10-02T06:00:00,3,28217246,210013
OK,351,30,610,351,2014-10-02T06:05:00,3,28217695,210013
OK,351,30,610,351,2014-10-02T06:10:00,0,28218134,210013
OK,475,22,610,475,2014-10-02T06:15:00,2,28218583,210013
OK,299,35,610,299,2014-10-02T06:20:00,3,28219003,210013
OK,215,49,610,215,2014-10-02T06:25:00,2,28219452,210013
OK,234,45,610,234,2014-10-02T06:30:00,4,28219825,210013
OK,224,47,610,224,2014-10-02T06:35:00,5,28220274,210013
OK,180,58,610,180,2014-10-02T06:40:00,1,28220708,210013
OK,180,58,610,180,2014-10-02T06:45:00,0,28221157,210013
OK,229,46,610,229,2014-10-02T07:00:00,2,28221824,210013
OK,265,39,610,265,2014-10-02T07:05:00,2,28221970,210013
OK,300,35,610,300,2014-10-02T07:10:00,1,28222418,210013
OK,300,35,610,300,2014-10-02T07:15:00,0,28222867,210013
OK,300,35,610,300,2014-10-02T07:20:00,0,28223298,210013
OK,300,35,610,300,2014-10-02T07:25:00,0,28223733,210013
OK,300,35,610,300,2014-10-02T07:30:00,0,28224181,210013
OK,221,47,610,221,2014-10-02T07:35:00,0,28224536,210013
OK,221,47,610,221,2014-10-02T07:40:00,0,28224985,210013
OK,221,47,610,221,2014-10-02T07:50:00,0,28225756,210013
OK,221,47,610,221,2014-10-02T07:55:00,0,28226205,210013
OK,221,47,610,221,2014-10-02T08:00:00,0,28226646,210013
OK,221,47,610,221,2014-10-02T08:05:00,0,28227095,210013
OK,221,47,610,221,2014-10-02T08:10:00,0,28227510,210013
OK,221,47,610,221,2014-10-02T08:15:00,0,28227959,210013
OK,221,47,610,221,2014-10-02T08:20:00,0,28228318,210013
OK,221,47,610,221,2014-10-02T08:25:00,0,28228767,210013
OK,221,47,610,221,2014-10-02T08:30:00,0,28229177,210013
OK,241,43,610,241,2014-10-02T08:35:00,4,28229626,210013
OK,241,43,610,241,2014-10-02T08:40:00,0,28229976,210013
OK,241,43,610,241,2014-10-02T08:45:00,0,28230425,210013
OK,0,0,610,0,2014-10-02T08:50:00,0,28230791,210013
OK,241,43,610,241,2014-10-02T08:55:00,0,28231239,210013
OK,254,41,610,254,2014-10-02T09:00:00,1,28231663,210013
OK,254,41,610,254,2014-10-02T09:05:00,0,28232112,210013
OK,313,33,610,313,2014-10-02T09:15:00,1,28232454,210013
OK,313,33,610,313,2014-10-02T09:20:00,1,28232903,210013
OK,313,33,610,313,2014-10-02T09:25:00,0,28233352,210013
OK,313,33,610,313,2014-10-02T09:30:00,0,28233776,210013
OK,313,33,610,313,2014-10-02T09:35:00,0,28234225,210013
OK,313,33,610,313,2014-10-02T09:40:00,0,28234558,210013
OK,313,33,610,313,2014-10-02T09:45:00,0,28235007,210013
OK,313,33,610,313,2014-10-02T09:50:00,0,28235434,210013
OK,313,33,610,313,2014-10-02T09:55:00,0,28235883,210013
OK,313,33,610,313,2014-10-02T10:00:00,0,28236326,210013
OK,313,33,610,313,2014-10-02T10:05:00,0,28236773,210013
OK,313,33,610,313,2014-10-02T10:10:00,0,28237176,210013
OK,313,33,610,313,2014-10-02T10:15:00,0,28237623,210013
OK,217,48,610,217,2014-10-02T10:20:00,1,28238072,210013
OK,217,48,610,217,2014-10-02T10:25:00,1,28238519,210013
OK,217,48,610,217,2014-10-02T10:30:00,0,28238960,210013
OK,240,44,610,240,2014-10-02T10:35:00,1,28239409,210013
OK,233,45,610,233,2014-10-02T10:40:00,1,28239839,210013
OK,233,45,610,233,2014-10-02T10:45:00,1,28240288,210013
OK,233,45,610,233,2014-10-02T10:50:00,0,28240732,210013
OK,233,45,610,233,2014-10-02T10:55:00,0,28241181,210013
OK,233,45,610,233,2014-10-02T11:00:00,0,28241613,210013
OK,233,45,610,233,2014-10-02T11:05:00,0,28242061,210013
OK,233,45,610,233,2014-10-02T11:10:00,0,28242457,210013
OK,233,45,610,233,2014-10-02T11:15:00,0,28242906,210013
OK,233,45,610,233,2014-10-02T11:20:00,0,28243355,210013
OK,233,45,610,233,2014-10-02T11:25:00,0,28243680,210013
OK,233,45,610,233,2014-10-02T11:30:00,0,28244118,210013
OK,232,45,610,232,2014-10-02T11:35:00,2,28244547,210013
OK,243,43,610,243,2014-10-02T11:40:00,1,28244996,210013
OK,243,43,610,243,2014-10-02T11:45:00,0,28245445,210013
OK,220,48,610,220,2014-10-02T11:50:00,2,28245851,210013
OK,220,48,610,220,2014-10-02T11:55:00,2,28246300,210013
OK,229,46,610,229,2014-10-02T12:00:00,2,28246737,210013
OK,229,46,610,229,2014-10-02T12:05:00,2,28247186,210013
OK,229,46,610,229,2014-10-02T12:10:00,0,28247632,210013
OK,240,44,610,240,2014-10-02T12:15:00,0,28248062,210013
OK,240,44,610,240,2014-10-02T12:20:00,0,28248511,210013
OK,240,44,610,240,2014-10-02T12:25:00,0,28248958,210013
OK,240,44,610,240,2014-10-02T12:30:00,0,28249386,210013
OK,852,12,610,852,2014-10-02T12:35:00,3,28249830,210013
OK,227,46,610,227,2014-10-02T12:45:00,2,28250647,210013
OK,220,48,610,220,2014-10-02T12:50:00,1,28251427,210013
OK,216,48,610,216,2014-10-02T13:00:00,2,28251467,210013
OK,252,41,610,252,2014-10-02T13:20:00,2,28251507,210013
OK,261,40,610,261,2014-10-02T13:30:00,2,28251972,210013
OK,304,34,610,304,2014-10-02T13:35:00,1,28252109,210013
OK,304,34,610,304,2014-10-02T13:40:00,0,28252556,210013
OK,252,41,610,252,2014-10-02T13:45:00,5,28252998,210013
OK,252,41,610,252,2014-10-02T13:50:00,5,28253415,210013
OK,228,46,610,228,2014-10-02T13:55:00,1,28253864,210013
OK,238,44,610,238,2014-10-02T14:10:00,1,28254595,210013